When you browse on this site, cookies collect data to enhance your experience and personalize the content and advertising you see.
Visit our Privacy Policy to learn more. By continuing to use the site, you agree to this use of cookies and data.
  • In Schweiz
  • Länderverzeichnis
  • Für 7 Tage
  • Wassertemperatur
  • Satellitenkarten
  • Wetterkarte
  • Widgets
  • user-avatar
    Anmelden

    Stündliche Wetter Francistown

    Heute, 24 Januar, Donnerstag

    Zeit Temperatur Niederschläge Wind Luftdruck Luftfeuchtigkeit
    00:00 +26°C° 0 mm 3 m/S 674 mmHg 46%
    01:00 +26°C° 0 mm 3 m/S 674 mmHg 47%
    02:00 +25°C° 0 mm 3 m/S 674 mmHg 49%
    03:00 +25°C° 0 mm 3 m/S 674 mmHg 49%
    04:00 +24°C° 0 mm 3 m/S 674 mmHg 49%
    05:00 +24°C° 0 mm 3 m/S 674 mmHg 49%
    06:00 +25°C° 0 mm 2 m/S 675 mmHg 46%
    07:00 +27°C° 0 mm 2 m/S 675 mmHg 43%
    08:00 +28°C° 0 mm 1 m/S 676 mmHg 39%
    09:00 +30°C° 0 mm 1 m/S 677 mmHg 35%
    10:00 +32°C° 0 mm 2 m/S 677 mmHg 31%
    11:00 +34°C° 0 mm 2 m/S 677 mmHg 28%
    12:00 +35°C° 0 mm 3 m/S 677 mmHg 26%
    13:00 +37°C° 0 mm 3 m/S 676 mmHg 25%
    14:00 +38°C° 0 mm 4 m/S 676 mmHg 23%
    15:00 +38°C° 0 mm 4 m/S 676 mmHg 24%
    16:00 +37°C° 0 mm 4 m/S 675 mmHg 25%
    17:00 +37°C° 0 mm 4 m/S 675 mmHg 25%
    18:00 +36°C° 0 mm 5 m/S 675 mmHg 30%
    19:00 +34°C° 0 mm 5 m/S 675 mmHg 34%
    20:00 +32°C° 0 mm 5 m/S 675 mmHg 39%
    21:00 +30°C° 0 mm 5 m/S 675 mmHg 40%
    22:00 +29°C° 0 mm 5 m/S 675 mmHg 42%
    23:00 +28°C° 0 mm 6 m/S 676 mmHg 44%

    Morgen, 25 Januar, Freitag

    Zeit Temperatur Niederschläge Wind Luftdruck Luftfeuchtigkeit
    00:00 +27°C° 0 mm 5 m/S 676 mmHg 44%
    01:00 +27°C° 0 mm 5 m/S 676 mmHg 44%
    02:00 +26°C° 0 mm 5 m/S 676 mmHg 45%
    03:00 +26°C° 0 mm 5 m/S 676 mmHg 46%
    04:00 +25°C° 0 mm 5 m/S 676 mmHg 48%
    05:00 +23°C° 0 mm 5 m/S 676 mmHg 50%
    06:00 +25°C° 0 mm 5 m/S 676 mmHg 53%
    07:00 +25°C° 0 mm 5 m/S 677 mmHg 55%
    08:00 +26°C° 0 mm 5 m/S 677 mmHg 58%
    09:00 +28°C° 0 mm 4 m/S 678 mmHg 51%
    10:00 +30°C° 0 mm 4 m/S 678 mmHg 44%
    11:00 +34°C° 0 mm 4 m/S 678 mmHg 36%
    12:00 +35°C° 0 mm 4 m/S 678 mmHg 33%
    13:00 +36°C° 0 mm 4 m/S 678 mmHg 30%
    14:00 +37°C° 0 mm 4 m/S 677 mmHg 26%
    15:00 +37°C° 0 mm 4 m/S 677 mmHg 26%
    16:00 +37°C° 0 mm 4 m/S 676 mmHg 26%
    17:00 +37°C° 0 mm 4 m/S 676 mmHg 25%
    18:00 +35°C° 0 mm 4 m/S 676 mmHg 29%
    19:00 +34°C° 0 mm 5 m/S 676 mmHg 33%
    20:00 +32°C° 0 mm 5 m/S 676 mmHg 37%
    21:00 +30°C° 0 mm 5 m/S 676 mmHg 39%
    22:00 +29°C° 0 mm 5 m/S 676 mmHg 41%
    23:00 +28°C° 0 mm 5 m/S 676 mmHg 42%

    übermorgen, 26 Januar, Samstag

    Zeit Temperatur Niederschläge Wind Luftdruck Luftfeuchtigkeit
    00:00 +27°C° 0 mm 4 m/S 676 mmHg 44%
    01:00 +26°C° 0 mm 3 m/S 676 mmHg 46%
    02:00 +25°C° 0 mm 2 m/S 676 mmHg 47%
    03:00 +25°C° 0 mm 2 m/S 676 mmHg 49%
    04:00 +24°C° 0 mm 3 m/S 676 mmHg 51%
    05:00 +22°C° 0 mm 3 m/S 676 mmHg 53%
    06:00 +25°C° 0 mm 3 m/S 676 mmHg 51%
    07:00 +26°C° 0 mm 4 m/S 677 mmHg 49%
    08:00 +27°C° 0 mm 5 m/S 678 mmHg 47%
    09:00 +29°C° 0 mm 4 m/S 678 mmHg 41%
    10:00 +33°C° 0 mm 3 m/S 678 mmHg 35%
    11:00 +35°C° 0 mm 2 m/S 679 mmHg 29%
    12:00 +36°C° 0 mm 2 m/S 678 mmHg 27%
    13:00 +37°C° 0 mm 2 m/S 678 mmHg 25%
    14:00 +38°C° 0 mm 2 m/S 677 mmHg 22%
    15:00 +38°C° 0 mm 3 m/S 677 mmHg 22%
    16:00 +38°C° 0 mm 3 m/S 676 mmHg 23%
    17:00 +37°C° 0 mm 4 m/S 676 mmHg 23%
    18:00 +35°C° 0 mm 4 m/S 675 mmHg 26%
    19:00 +34°C° 0 mm 5 m/S 675 mmHg 30%
    20:00 +32°C° 0 mm 5 m/S 675 mmHg 33%
    21:00 +30°C° 0 mm 6 m/S 676 mmHg 39%
    22:00 +29°C° 0 mm 6 m/S 676 mmHg 44%
    23:00 +28°C° 0 mm 7 m/S 676 mmHg 49%

    27 Januar, Sonntag

    Zeit Temperatur Niederschläge Wind Luftdruck Luftfeuchtigkeit
    00:00 +27°C° 0.2 mm 7 m/S 676 mmHg 55%
    01:00 +26°C° 0.2 mm 8 m/S 676 mmHg 61%
    02:00 +24°C° 0.2 mm 8 m/S 676 mmHg 67%
    03:00 +24°C° 0.1 mm 8 m/S 676 mmHg 70%
    04:00 +23°C° 0.1 mm 7 m/S 677 mmHg 74%
    05:00 +22°C° 0.1 mm 7 m/S 677 mmHg 77%
    06:00 +23°C° 0 mm 7 m/S 677 mmHg 75%
    07:00 +23°C° 0 mm 7 m/S 678 mmHg 73%
    08:00 +24°C° 0 mm 6 m/S 678 mmHg 72%
    09:00 +24°C° 0.2 mm 6 m/S 678 mmHg 69%
    10:00 +26°C° 0.2 mm 5 m/S 678 mmHg 67%
    11:00 +26°C° 0.2 mm 4 m/S 678 mmHg 65%
    12:00 +28°C° 0 mm 4 m/S 678 mmHg 59%
    13:00 +30°C° 0 mm 4 m/S 677 mmHg 52%
    14:00 +33°C° 0 mm 4 m/S 677 mmHg 46%
    15:00 +32°C° 0.3 mm 4 m/S 676 mmHg 46%
    16:00 +32°C° 0.3 mm 4 m/S 676 mmHg 47%
    17:00 +31°C° 0.3 mm 3 m/S 676 mmHg 47%
    18:00 +29°C° 0.1 mm 4 m/S 676 mmHg 54%
    19:00 +27°C° 0.1 mm 5 m/S 676 mmHg 62%
    20:00 +26°C° 0.1 mm 6 m/S 676 mmHg 69%
    21:00 +24°C° 0.1 mm 6 m/S 677 mmHg 73%
    22:00 +23°C° 0.1 mm 7 m/S 677 mmHg 76%
    23:00 +22°C° 0.1 mm 7 m/S 677 mmHg 80%

    28 Januar, Montag

    Zeit Temperatur Niederschläge Wind Luftdruck Luftfeuchtigkeit
    00:00 +22°C° 0.1 mm 6 m/S 677 mmHg 80%
    01:00 +22°C° 0.1 mm 6 m/S 677 mmHg 81%
    02:00 +21°C° 0.1 mm 5 m/S 677 mmHg 81%
    03:00 +21°C° 0.1 mm 5 m/S 677 mmHg 81%
    04:00 +21°C° 0.1 mm 5 m/S 677 mmHg 82%
    05:00 +21°C° 0.1 mm 5 m/S 677 mmHg 82%
    06:00 +21°C° 0 mm 5 m/S 678 mmHg 79%
    07:00 +22°C° 0 mm 5 m/S 678 mmHg 76%
    08:00 +22°C° 0 mm 5 m/S 678 mmHg 72%
    09:00 +26°C° 0 mm 4 m/S 678 mmHg 64%
    10:00 +28°C° 0 mm 4 m/S 678 mmHg 55%
    11:00 +30°C° 0 mm 4 m/S 678 mmHg 46%
    12:00 +32°C° 0 mm 4 m/S 678 mmHg 44%
    13:00 +32°C° 0 mm 4 m/S 677 mmHg 42%
    14:00 +33°C° 0 mm 4 m/S 677 mmHg 40%
    15:00 +33°C° 0 mm 4 m/S 676 mmHg 41%
    16:00 +33°C° 0 mm 5 m/S 676 mmHg 41%
    17:00 +33°C° 0 mm 5 m/S 676 mmHg 42%
    18:00 +30°C° 0 mm 6 m/S 676 mmHg 48%
    19:00 +29°C° 0 mm 6 m/S 676 mmHg 53%
    20:00 +27°C° 0 mm 7 m/S 676 mmHg 59%
    21:00 +26°C° 0.1 mm 6 m/S 677 mmHg 62%
    22:00 +24°C° 0.1 mm 6 m/S 677 mmHg 65%
    23:00 +23°C° 0.1 mm 5 m/S 677 mmHg 68%

    29 Januar, Dienstag

    Zeit Temperatur Niederschläge Wind Luftdruck Luftfeuchtigkeit
    00:00 +23°C° 0 mm 5 m/S 677 mmHg 70%
    01:00 +23°C° 0 mm 5 m/S 677 mmHg 71%
    02:00 +22°C° 0 mm 4 m/S 676 mmHg 73%
    03:00 +22°C° 0 mm 4 m/S 676 mmHg 74%
    04:00 +22°C° 0 mm 4 m/S 677 mmHg 76%
    05:00 +21°C° 0 mm 4 m/S 677 mmHg 77%
    06:00 +22°C° 0 mm 4 m/S 677 mmHg 74%
    07:00 +23°C° 0 mm 4 m/S 678 mmHg 70%
    08:00 +25°C° 0 mm 4 m/S 679 mmHg 67%
    09:00 +27°C° 0 mm 4 m/S 679 mmHg 59%
    10:00 +29°C° 0 mm 4 m/S 679 mmHg 52%
    11:00 +32°C° 0 mm 4 m/S 679 mmHg 44%
    12:00 +33°C° 0 mm 3 m/S 678 mmHg 41%
    13:00 +32°C° 0 mm 2 m/S 678 mmHg 38%
    14:00 +34°C° 0 mm 2 m/S 677 mmHg 35%
    15:00 +34°C° 0 mm 2 m/S 677 mmHg 35%
    16:00 +34°C° 0 mm 2 m/S 676 mmHg 34%
    17:00 +34°C° 0 mm 2 m/S 676 mmHg 34%
    18:00 +32°C° 0 mm 2 m/S 676 mmHg 36%
    19:00 +31°C° 0 mm 2 m/S 676 mmHg 38%
    20:00 +30°C° 0 mm 3 m/S 676 mmHg 41%
    21:00 +29°C° 0 mm 3 m/S 677 mmHg 44%
    22:00 +27°C° 0 mm 3 m/S 677 mmHg 47%
    23:00 +26°C° 0 mm 3 m/S 677 mmHg 49%
    Mehr zeigen